User: anonymous   Login
Location: Unspecified
(0.0000°N, 0.0000°E)
Time: 07:16:02
(UTC+00:00)
Language:

SAUDISAT 1B - Orbit

View from above orbital plane
View from above orbital plane
View from above satellite
View from above satellite

Ground track
Ground track

The orbit data is extracted from the following two-line orbital elements,

1 26549U 00057E   17178.90338272 -.00000025 +00000-0 +15417-4 0  9996
2 26549 064.5536 088.1695 0045436 224.0016 135.7470 14.83368784905026
Epoch (UTC): 27 June 2017 21:40:52
Eccentricity: 0.0045436
inclination: 64.5536°
perigee height: 587 km
apogee height: 650 km
right ascension of ascending node: 88.1695°
argument of perigee: 224.0016°
revolutions per day: 14.83368784
mean anomaly at epoch: 135.7470°
orbit number at epoch: 90502

The dashed part of the orbit path shows where the satellite is in the earth's shadow,  

DLR